FW3021 Weather Reports


Display with metric or nautical units.
time (UTC)temp
F
wind
direction
speed
MPH
gust
MPH
rain 1hr
in
rain 24hr
in
rain mn
in
humidity
%
barometer
mb
20260831030515 63 0 3.0 9.0 0.00 0.00 0.00 83 1013.1
20260831025516 63 0 4.0 12.0 0.00 0.00 0.00 82 1013.3
20260831024515 63 0 2.0 8.0 0.00 0.00 0.00 82 1013.0
20260831023516 63 0 4.0 14.0 0.00 0.00 0.00 82 1012.8
20260831022516 63 0 4.0 11.0 0.00 0.00 0.00 82 1012.7
20260831021516 64 0 3.0 15.0 0.00 0.00 0.00 82 1012.7
20260831020516 64 0 3.0 11.0 0.00 0.00 0.00 82 1012.5
20260831015516 64 0 4.0 10.0 0.00 0.00 0.00 82 1012.3
20260831014515 64 0 3.0 12.0 0.00 0.00 0.00 82 1012.4
20260831013515 64 0 4.0 10.0 0.00 0.00 0.00 82 1012.3
20260831012515 64 0 4.0 11.0 0.00 0.00 0.00 82 1012.4
20260831011516 64 0 3.0 10.0 0.00 0.00 0.00 82 1012.6
20260831010516 64 0 3.0 10.0 0.00 0.00 0.00 81 1012.6
20260831005516 65 0 4.0 12.0 0.00 0.00 0.00 81 1012.6
20260831004515 65 0 5.0 10.0 0.00 0.00 0.00 81 1012.7
20260831003538 65 0 5.0 11.0 0.00 0.00 0.00 81 1012.9
20260831002518 65 0 4.0 10.0 0.00 0.00 0.00 81 1013.0
20260831001517 65 0 4.0 12.0 0.00 0.00 0.00 81 1012.8
20260831000517 65 0 4.0 13.0 0.00 0.00 0.00 81 1012.9
20260830235517 65 0 5.0 12.0 0.00 0.00 0.00 81 1012.8
20260830234517 65 0 4.0 14.0 0.00 0.00 0.00 81 1012.9
20260830233517 65 0 2.0 10.0 0.00 0.00 0.00 81 1012.9
20260830232517 65 0 4.0 12.0 0.00 0.00 0.00 81 1012.9
20260830231517 65 0 5.0 13.0 0.00 0.00 0.00 81 1012.9
20260830230517 65 0 4.0 12.0 0.00 0.00 0.00 81 1013.0
20260830225517 65 0 3.0 9.0 0.00 0.00 0.00 81 1013.3
20260830224517 65 0 4.0 10.0 0.00 0.00 0.00 81 1013.2
20260830223517 65 0 4.0 11.0 0.00 0.00 0.00 81 1013.2
20260830222517 65 0 4.0 15.0 0.00 0.00 0.00 81 1013.1
20260830221517 65 0 4.0 10.0 0.00 0.00 0.00 81 1013.6
20260830220517 65 0 5.0 9.0 0.00 0.00 0.00 80 1013.5
20260830215517 65 0 3.0 8.0 0.00 0.00 0.00 80 1013.7
20260830214517 66 0 3.0 13.0 0.00 0.00 0.00 80 1013.9
20260830213517 66 0 3.0 12.0 0.00 0.00 0.00 80 1013.7
20260830212517 66 0 4.0 12.0 0.00 0.00 0.00 79 1013.9
20260830211517 66 0 4.0 12.0 0.00 0.00 0.00 79 1013.9
20260830210537 67 0 4.0 13.0 0.00 0.00 0.00 78 1013.9
20260830205517 67 0 5.0 13.0 0.00 0.00 0.00 77 1013.7
20260830204517 67 0 4.0 11.0 0.00 0.00 0.00 78 1013.8
20260830203537 66 0 5.0 14.0 0.00 0.00 0.00 79 1013.7
20260830202517 67 0 5.0 17.0 0.00 0.00 0.00 78 1013.8
20260830201537 67 0 5.0 13.0 0.00 0.00 0.00 78 1014.0
20260830200517 67 0 6.0 13.0 0.00 0.00 0.00 78 1014.0
20260830195517 67 0 4.0 11.0 0.00 0.00 0.00 78 1014.0
20260830194517 67 0 6.0 13.0 0.00 0.00 0.00 77 1013.8
20260830193517 67 0 5.0 11.0 0.00 0.00 0.00 77 1014.0
20260830192517 67 0 6.0 15.0 0.00 0.00 0.00 78 1014.0
20260830191517 67 0 7.0 16.0 0.00 0.00 0.00 77 1014.0
20260830190517 67 0 5.0 12.0 0.00 0.00 0.00 78 1013.9
20260830185517 67 0 5.0 13.0 0.00 0.00 0.00 79 1014.0
20260830184537 66 0 4.0 10.0 0.00 0.00 0.00 80 1014.0
20260830183517 65 0 5.0 12.0 0.00 0.00 0.00 80 1013.8
20260830182517 66 0 4.0 12.0 0.00 0.00 0.00 79 1014.0
20260830181517 66 0 4.0 10.0 0.00 0.00 0.00 80 1014.0
20260830180517 66 0 4.0 11.0 0.00 0.00 0.00 80 1014.2
20260830175517 66 0 4.0 12.0 0.00 0.00 0.00 79 1014.2
20260830174517 67 0 3.0 10.0 0.00 0.00 0.00 79 1014.2
20260830173517 67 0 5.0 12.0 0.00 0.00 0.00 78 1014.1
20260830172517 67 0 4.0 14.0 0.00 0.00 0.00 78 1014.1
20260830171517 67 0 4.0 10.0 0.00 0.00 0.00 78 1014.2
20260830170516 67 0 5.0 11.0 0.00 0.00 0.00 79 1014.2
20260830165516 66 0 4.0 12.0 0.00 0.00 0.00 79 1014.4
20260830164517 66 0 3.0 9.0 0.00 0.00 0.00 80 1014.5
20260830163536 66 0 3.0 9.0 0.00 0.00 0.00 79 1014.5
20260830162517 66 0 3.0 9.0 0.00 0.00 0.00 79 1014.4
20260830161516 66 0 2.0 6.0 0.00 0.00 0.00 80 1014.3
20260830160516 65 0 2.0 9.0 0.00 0.00 0.00 81 1014.1
20260830155516 65 0 2.0 8.0 0.00 0.00 0.00 81 1014.0
20260830154516 65 0 2.0 6.0 0.00 0.00 0.00 82 1013.9
20260830153536 64 0 3.0 8.0 0.00 0.00 0.00 83 1013.7
20260830152516 64 0 3.0 9.0 0.00 0.00 0.00 84 1013.6
20260830151516 64 0 3.0 9.0 0.00 0.00 0.00 84 1013.8
20260830150536 64 0 3.0 8.0 0.00 0.00 0.00 84 1013.8
20260830145536 64 0 4.0 9.0 0.00 0.00 0.00 84 1013.7
20260830144516 64 0 4.0 10.0 0.00 0.00 0.00 84 1013.7
20260830143516 64 0 3.0 11.0 0.00 0.00 0.00 85 1013.6
20260830142516 63 0 2.0 6.0 0.00 0.00 0.00 86 1013.7
20260830141517 63 0 4.0 10.0 0.00 0.00 0.00 86 1013.9
20260830140516 63 0 2.0 9.0 0.00 0.00 0.00 86 1013.9
20260830135536 63 0 3.0 8.0 0.00 0.00 0.00 87 1013.8
20260830134516 63 0 3.0 8.0 0.00 0.00 0.00 87 1013.9
20260830133516 62 0 3.0 8.0 0.00 0.00 0.00 87 1013.9
20260830132516 62 0 2.0 5.0 0.00 0.00 0.00 87 1013.7
20260830131516 62 0 3.0 9.0 0.00 0.00 0.00 87 1013.7
20260830130516 62 0 3.0 9.0 0.00 0.00 0.00 87 1013.5
20260830125516 62 0 2.0 8.0 0.00 0.00 0.00 87 1013.5
20260830124556 62 0 1.0 15.0 0.00 0.00 0.00 86 1013.6
20260830123536 62 0 4.0 9.0 0.00 0.00 0.00 86 1013.5
20260830122516 63 0 3.0 9.0 0.00 0.00 0.00 86 1013.4
20260830121536 63 0 4.0 8.0 0.00 0.00 0.00 86 1013.5
20260830120516 63 0 2.0 6.0 0.00 0.00 0.00 86 1013.6
20260830115516 63 0 2.0 6.0 0.00 0.00 0.00 86 1013.5
20260830114516 63 0 1.0 5.0 0.00 0.00 0.00 85 1013.3
20260830113516 63 0 2.0 8.0 0.00 0.00 0.00 84 1013.2
20260830112516 63 0 3.0 6.0 0.00 0.00 0.00 83 1013.1
20260830111516 63 0 2.0 6.0 0.00 0.00 0.00 82 1012.9
20260830110516 64 0 2.0 6.0 0.00 0.00 0.00 81 1012.8
20260830105516 64 0 2.0 5.0 0.00 0.00 0.00 80 1012.9
20260830104516 64 0 3.0 8.0 0.00 0.00 0.00 80 1012.8
20260830103516 64 0.0 3.0 0.00 0.00 0.00 80 1012.8
20260830102536 64 0 1.0 3.0 0.00 0.00 0.00 79 1012.7
20260830101516 64 0 2.0 6.0 0.00 0.00 0.00 80 1012.9
20260830100516 64 0 3.0 8.0 0.00 0.00 0.00 80 1012.9
20260830095516 64 0.0 2.0 0.00 0.00 0.00 80 1013.1
20260830094516 64 0 1.0 4.0 0.00 0.00 0.00 80 1012.9
20260830093516 64 0.0 4.0 0.00 0.00 0.00 80 1012.9
20260830092516 64 0 1.0 3.0 0.00 0.00 0.00 80 1012.6
20260830091556 64 0.0 2.0 0.00 0.00 0.00 80 1012.7
20260830090516 63 0.0 3.0 0.00 0.00 0.00 79 1012.6
20260830085516 64 0.0 2.0 0.00 0.00 0.00 79 1012.4
20260830084515 64 0.0 2.0 0.00 0.00 0.00 80 1012.5
20260830083516 64 0.0 0.0 0.00 0.00 0.00 79 1012.6
20260830082516 64 0.0 0.0 0.00 0.00 0.00 79 1012.7
20260830081515 64 0.0 0.0 0.00 0.00 0.00 79 1012.4
20260830080515 64 0.0 1.0 0.00 0.00 0.00 79 1012.3
20260830075515 64 0.0 2.0 0.00 0.00 0.00 79 1012.3
20260830074515 64 0.0 3.0 0.00 0.00 0.00 79 1012.3
20260830073515 64 0.0 2.0 0.00 0.00 0.00 79 1012.4
20260830072515 64 0 1.0 5.0 0.00 0.00 0.00 79 1012.4
20260830071515 64 0 2.0 4.0 0.00 0.00 0.00 80 1012.4
20260830070535 64 0 1.0 4.0 0.00 0.00 0.00 81 1012.5
20260830065516 64 0 1.0 4.0 0.00 0.00 0.00 81 1012.6
20260830064515 64 0.0 2.0 0.00 0.00 0.00 81 1012.9
20260830063515 64 0.0 2.0 0.00 0.00 0.00 82 1013.0
20260830062515 64 0 1.0 3.0 0.00 0.00 0.00 82 1013.1
20260830061517 63 0 1.0 4.0 0.00 0.00 0.00 82 1013.2
20260830060538 63 0.0 0.0 0.00 0.00 0.00 82 1013.2
20260830055517 63 0.0 0.0 0.00 0.00 0.00 82 1013.4
20260830054537 63 0.0 0.0 0.00 0.00 0.00 82 1013.4
20260830053518 63 0.0 0.0 0.00 0.00 0.00 80 1013.2
20260830052517 63 0.0 0.0 0.00 0.00 0.00 79 1013.3
20260830051517 63 0.0 0.0 0.00 0.00 0.00 77 1013.5
20260830050517 63 0.0 0.0 0.00 0.00 0.00 76 1013.5
20260830045516 63 68 1.0 3.0 0.00 0.00 0.00 75 1013.3
20260830044515 64 0.0 2.0 0.00 0.00 0.00 74 1013.4
20260830043535 64 0.0 2.0 0.00 0.00 0.00 74 1013.6
20260830042556 64 0.0 0.0 0.00 0.00 0.00 74 1013.7
20260830041535 64 0.0 1.0 0.00 0.00 0.00 73 1013.3
20260830040515 64 0 1.0 3.0 0.00 0.00 0.00 73 1013.4
20260830035517 64 0.0 2.0 0.00 0.00 0.00 73 1013.3
20260830034557 64 0 2.0 5.0 0.00 0.00 0.00 73 1013.2
20260830033517 64 0 1.0 3.0 0.00 0.00 0.00 73 1013.1
20260830032517 64 0 1.0 4.0 0.00 0.00 0.00 72 1013.2
20260830031517 63 0.0 2.0 0.00 0.00 0.00 72 1013.2